Skagway, AK

7:57 AM AKST on February 27, 2017 (GMT -0900)
Skagway

Weather History for PAGY - June, 2013

Change the Weather History Date:

Sunday, June 23, 2013

  Actual Average Record
Temperature  
Mean Temperature 58 °F -  
Max Temperature 66 °F 63 °F 81 °F (1997)
Min Temperature 50 °F 47 °F 41 °F (2000)
Degree Days  
Heating Degree Days 7    
Growing Degree Days 8 (Base 50)    
Moisture  
Dew Point 51 °F    
Average Humidity 87    
Maximum Humidity 100    
Minimum Humidity 52    
Precipitation  
Precipitation 0.00 in - - ()
Sea Level Pressure  
Sea Level Pressure 29.81 in    
Wind  
Wind Speed 1 mph (SW)    
Max Wind Speed 20 mph    
Max Gust Speed -    
Visibility 6 miles    
Events Fog , Rain    
Averages and records for this station are not official NWS values.
T = Trace of Precipitation, MM = Missing Value Source: NWS Daily Summary

Daily Weather History Graph

Daily Weather History Graph

Search for Another Location

Airport or City:

Trip Planner

Search our weather history database for the weather conditions in past years. The results will help you decide how hot, cold, wet, or windy it might be!

Date:

Astronomy

Jun. 23, 2013 Rise Set
Actual Time 3:43 AM AKDT 10:23 PM AKDT
Civil Twilight 2:09 AM AKDT 11:56 PM AKDT
Nautical Twilight Sun does not rise Sun does not rise
Astronomical Twilight Sun does not rise Sun does not rise
Moon 10:08 PM AKDT (6/23) 4:35 AM AKDT (6/23)
Length of Visible Light 21h 46m
Length of Day
18h 39m
Full, 100% of the Moon is Illuminated
Jun 23
Full
Jun 29
Last Quarter
Jul 7
New
Jul 15
First Quarter
Jul 22
Full

Hourly Weather History & Observations

Time (AKDT) Temp. Dew Point Humidity Pressure Visibility Wind Dir Wind Speed Gust Speed Precip Events Conditions
12:53 AM 55.9 °F 51.1 °F 84% 29.91 in 10.0 mi Calm Calm - N/A   Overcast
1:01 AM 55.4 °F 51.8 °F 88% 29.89 in 10.0 mi Calm Calm - N/A   Overcast
1:12 AM 55.4 °F 51.8 °F 88% 29.89 in 10.0 mi Calm Calm - N/A   Overcast
1:53 AM 55.0 °F 52.0 °F 89% 29.88 in 6.0 mi Calm Calm - 0.00 in Rain Light Rain
2:26 AM 53.6 °F 51.8 °F 94% 29.87 in 4.0 mi Calm Calm - 0.00 in   Overcast
2:53 AM 55.0 °F 52.0 °F 89% 29.87 in 10.0 mi Calm Calm - 0.00 in   Overcast
3:31 AM 53.6 °F 51.8 °F 94% 29.86 in 1.5 mi Calm Calm - N/A   Overcast
3:33 AM 51.8 °F 51.8 °F 100% 29.86 in 0.8 mi SW 3.5 mph - N/A   Overcast
3:49 AM 53.6 °F 51.8 °F 94% 29.88 in 1.8 mi Calm Calm - N/A   Overcast
3:51 AM 53.6 °F 51.8 °F 94% 29.87 in 4.0 mi Calm Calm - N/A   Overcast
3:53 AM 53.1 °F 52.0 °F 96% 29.88 in 8.0 mi Calm Calm - N/A   Overcast
4:11 AM 51.8 °F 51.8 °F 100% 29.86 in 1.5 mi Calm Calm - N/A   Overcast
4:15 AM 51.8 °F 50.0 °F 94% 29.86 in 0.8 mi Calm Calm - N/A   Overcast
4:22 AM 51.8 °F 50.0 °F 94% 29.87 in 1.5 mi Calm Calm - N/A   Overcast
4:27 AM 51.8 °F 48.2 °F 88% 29.87 in 1.0 mi Calm Calm - N/A   Overcast
4:32 AM 50.0 °F 48.2 °F 94% 29.87 in 0.2 mi Calm Calm - N/A Fog Fog
4:46 AM 51.8 °F 50.0 °F 94% 29.86 in 1.2 mi Calm Calm - N/A   Overcast
4:48 AM 51.8 °F 50.0 °F 94% 29.86 in 3.0 mi Calm Calm - N/A   Overcast
4:53 AM 51.1 °F 50.0 °F 96% 29.86 in 3.0 mi Calm Calm - N/A   Overcast
4:56 AM 51.8 °F 50.0 °F 94% 29.87 in 1.8 mi Calm Calm - N/A   Overcast
4:58 AM 51.8 °F 50.0 °F 94% 29.87 in 1.0 mi Calm Calm - N/A   Overcast
5:06 AM 51.8 °F 50.0 °F 94% 29.87 in 0.8 mi Calm Calm - N/A   Overcast
5:10 AM 53.6 °F 51.8 °F 94% 29.86 in 1.5 mi Calm Calm - N/A   Overcast
5:14 AM 53.6 °F 51.8 °F 94% 29.86 in 5.0 mi Calm Calm - N/A   Overcast
5:23 AM 53.6 °F 51.8 °F 94% 29.85 in 1.0 mi Calm Calm - N/A   Overcast
5:27 AM 51.8 °F 51.8 °F 100% 29.85 in 0.2 mi Calm Calm - N/A Fog Fog
5:39 AM 53.6 °F 51.8 °F 94% 29.86 in 0.5 mi Calm Calm - N/A Fog Fog
5:43 AM 53.6 °F 51.8 °F 94% 29.86 in 1.8 mi Calm Calm - N/A   Overcast
5:50 AM 53.6 °F 51.8 °F 94% 29.85 in 7.0 mi Calm Calm - N/A   Overcast
5:53 AM 52.0 °F 51.1 °F 97% 29.85 in 7.0 mi Calm Calm - N/A   Overcast
6:08 AM 50.0 °F 50.0 °F 100% 29.86 in 1.5 mi SSW 3.5 mph - N/A   Overcast
6:14 AM 50.0 °F 48.2 °F 94% 29.86 in 0.8 mi Calm Calm - N/A   Overcast
6:20 AM 51.8 °F 50.0 °F 94% 29.86 in 1.5 mi Calm Calm - N/A   Overcast
6:25 AM 53.6 °F 51.8 °F 94% 29.84 in 4.0 mi Calm Calm - N/A   Overcast
6:37 AM 51.8 °F 51.8 °F 100% 29.84 in 2.5 mi Calm Calm - N/A   Overcast
6:45 AM 53.6 °F 51.8 °F 94% 29.84 in 10.0 mi Calm Calm - N/A   Overcast
6:53 AM 53.1 °F 52.0 °F 96% 29.85 in 10.0 mi Calm Calm - N/A   Overcast
7:06 AM 51.8 °F 50.0 °F 94% 29.83 in 2.5 mi Calm Calm - N/A   Overcast
7:15 AM 51.8 °F 50.0 °F 94% 29.83 in 10.0 mi Calm Calm - N/A   Overcast
7:53 AM 53.1 °F 51.1 °F 93% 29.83 in 10.0 mi Calm Calm - N/A   Overcast
8:13 AM 55.4 °F 51.8 °F 88% 29.82 in 10.0 mi Calm Calm - N/A   Scattered Clouds
8:53 AM 57.0 °F 53.1 °F 87% 29.81 in 10.0 mi SW 4.6 mph - N/A   Clear
9:53 AM 55.0 °F 52.0 °F 89% 29.78 in 10.0 mi SSW 3.5 mph - N/A   Clear
10:53 AM 54.0 °F 50.0 °F 86% 29.78 in 10.0 mi WSW 5.8 mph - N/A   Clear
11:53 AM 57.0 °F 51.1 °F 81% 29.75 in 10.0 mi Calm Calm - N/A   Overcast
12:53 PM 55.9 °F 50.0 °F 80% 29.73 in 10.0 mi WSW 8.1 mph - N/A   Mostly Cloudy
1:53 PM 60.1 °F 51.1 °F 72% 29.71 in 10.0 mi SW 6.9 mph - N/A   Clear
2:53 PM 62.1 °F 48.9 °F 62% 29.70 in 10.0 mi SSW 15.0 mph - N/A   Clear
3:53 PM 64.9 °F 50.0 °F 58% 29.68 in 10.0 mi SSW 16.1 mph - N/A   Clear
4:53 PM 66.9 °F 51.1 °F 57% 29.65 in 10.0 mi SSW 19.6 mph - N/A   Clear
5:53 PM 66.0 °F 50.0 °F 56% 29.64 in 10.0 mi SSW 18.4 mph - N/A   Clear
6:53 PM 66.9 °F 48.9 °F 52% 29.63 in 10.0 mi SSW 17.3 mph - N/A   Clear
7:53 PM 63.0 °F 48.0 °F 58% 29.62 in 10.0 mi West 13.8 mph - N/A   Clear
8:53 PM 63.0 °F 48.0 °F 58% 29.64 in 10.0 mi Calm Calm - N/A   Clear
9:53 PM 57.9 °F 48.9 °F 72% 29.65 in 10.0 mi Calm Calm - N/A   Clear
10:53 PM 55.9 °F 48.9 °F 77% 29.65 in 10.0 mi Calm Calm - N/A   Clear
11:53 PM 55.0 °F 48.0 °F 77% 29.65 in 10.0 mi Calm Calm - N/A   Clear